This demonstration page uses our WeatherBlox Daily Observations layout. Learn more.

Left ArrowRight Arrow

41.12389, -100.76542

Hourly Observations for September 27, 2016

Temp ( °F °C ) Dew Point ( °F °C ) Humidity (%) Winds ( mph kmh ) Pressure ( in mb ) Visibility ( mi km ) Precip ( " mm )
12:53 am 00:53 Clear 45 7.2 39 3.9 80 80 NW 3 6 30.15 1021 10 16 0.00 0.00
1:53 am 01:53 Clear 42 5.6 39 3.9 89 89 Calm 30.14 1021 10 16 0.00 0.00
2:53 am 02:53 Clear 41 5 38 3.3 89 89 NW 5 7 30.14 1021 10 16 0.00 0.00
3:53 am 03:53 Clear 41 5 38 3.3 89 89 WNW 6 9 30.13 1020 10 16 0.00 0.00
4:53 am 04:53 Clear 41 5 38 3.3 89 89 NW 3 6 30.12 1020 10 16 0.00 0.00
5:53 am 05:53 Clear 39 3.9 37 2.8 93 93 NNW 5 7 30.12 1020 10 16 0.00 0.00
6:53 am 06:53 Clear 37 2.8 35 1.7 93 93 NW 6 9 30.13 1020 10 16 0.00 0.00
7:53 am 07:53 Sunny 37 2.8 35 1.7 93 93 NNW 3 6 30.15 1021 10 16 0.00 0.00
8:53 am 08:53 Sunny 47 8.3 43 6.1 86 86 NW 3 6 30.14 1021 10 16 0.00 0.00
9:53 am 09:53 Sunny 55 12.8 46 7.8 72 72 NW 5 7 30.13 1020 10 16 0.00 0.00
10:53 am 10:53 Sunny 64 17.8 46 7.8 52 52 W 5 7 30.10 1019 10 16 0.00 0.00
11:53 am 11:53 Sunny 72 22.2 47 8.3 41 41 W 9 15 30.06 1018 10 16 0.00 0.00
12:53 pm 12:53 Sunny 78 25.6 46 7.8 32 32 W 12 19 30.02 1017 10 16 0.00 0.00
1:53 pm 13:53 Sunny 81 27.2 46 7.8 29 29 W 13 20 29.98 1015 10 16 0.00 0.00
2:53 pm 14:53 Sunny 84 28.9 44 6.7 25 25 WSW 15 24 29.95 1014 10 16 0.00 0.00
3:53 pm 15:53 Sunny 86 30 44 6.7 23 23 W 10 17 29.92 1013 10 16 0.00 0.00
4:53 pm 16:53 Sunny 86 30 43 6.1 22 22 W 12 19 29.90 1013 10 16 0.00 0.00
5:53 pm 17:53 Sunny 85 29.4 39 3.9 20 20 NNW 10 17 29.90 1013 10 16 0.00 0.00
6:53 pm 18:53 Sunny 77 25 44 6.7 31 31 NW 7 11 29.93 1013 10 16 0.00 0.00
7:53 pm 19:53 Clear 64 17.8 45 7.2 50 50 N 6 9 29.95 1014 10 16 0.00 0.00
8:53 pm 20:53 Clear 65 18.3 42 5.6 43 43 Calm 29.95 1014 10 16 0.00 0.00
9:53 pm 21:53 Clear 59 15 46 7.8 62 62 Calm 29.97 1015 10 16 0.00 0.00
10:53 pm 22:53 Clear 55 12.8 45 7.2 69 69 Calm 29.98 1015 10 16 0.00 0.00
11:53 pm 23:53 Clear 50 10 42 5.6 74 74 Calm 30.00 1016 10 16 0.00 0.00

Powered by AerisWeather